Location: *
(46.4000°N, 12.6667°E)
Time: 03:14:43
(UTC+00:00)

ISS - Pass Details

Date: 05 December 2021
Orbit: 413 x 422 km, 51.6° (Epoch: 22 January)

Event Time Altitude Azimuth Distance (km) Brightness Sun altitude
Rises 17:40:26 0° 293° (WNW) 2,383 1.0 -22.8°
Reaches altitude 10° 17:42:40 10° 283° (WNW) 1,512 0.0 -23.2°
Maximum altitude 17:45:44 32° 219° (SW) 757 -2.1 -23.7°
Enters shadow 17:45:55 31° 211° (SSW) 760 -2.2 -23.8°
